Time,TemperatureF,DewpointF,PressureIn,WindDirection,WindDirectionDegrees,WindSpeedMPH,WindSpeedGustMPH,Humidity,HourlyPrecipIn,Conditions,Clouds,dailyrainin,SoftwareType,DateUTC
2013-05-06 00:01:00,53.3,45.9,0.00,NE,48,0.0,0.0,76,0.00,CLR,CLR,0.00,WeatherDisplay:10.37,2013-05-06 04:01:00,
2013-05-06 00:02:00,53.3,45.9,0.00,NE,48,0.0,0.0,76,0.00,CLR,CLR,0.00,WeatherDisplay:10.37,2013-05-06 04:02:00,
2013-05-06 00:03:00,53.2,45.8,0.00,NE,48,0.0,0.0,76,0.00,CLR,CLR,0.00,WeatherDisplay:10.37,2013-05-06 04:03:00,
2013-05-06 00:08:00,53.2,46.2,0.00,NE,48,0.0,0.0,77,0.00,CLR,CLR,0.00,WeatherDisplay:10.37,2013-05-06 04:08:00,
2013-05-06 00:13:00,53.1,46.1,0.00,NE,48,0.0,0.0,77,0.00,CLR,CLR,0.00,WeatherDisplay:10.37,2013-05-06 04:13:00,
2013-05-06 00:19:00,53.0,46.0,0.00,NE,48,0.0,0.0,77,0.00,CLR,CLR,0.00,WeatherDisplay:10.37,2013-05-06 04:19:00,
2013-05-06 00:24:00,52.8,45.8,0.00,NE,48,0.0,0.0,77,0.00,CLR,CLR,0.00,WeatherDisplay:10.37,2013-05-06 04:24:00,
2013-05-06 00:29:00,52.7,45.7,0.00,NE,48,0.0,0.0,77,0.00,CLR,CLR,0.00,WeatherDisplay:10.37,2013-05-06 04:29:00,
2013-05-06 00:34:00,52.5,45.5,0.00,NE,48,0.0,0.0,77,0.00,CLR,CLR,0.00,WeatherDisplay:10.37,2013-05-06 04:34:00,
2013-05-06 00:39:00,52.3,45.3,0.00,NE,48,0.0,0.0,77,0.00,CLR,CLR,0.00,WeatherDisplay:10.37,2013-05-06 04:39:00,
2013-05-06 00:44:00,52.2,45.2,0.00,NE,48,0.0,0.0,77,0.00,CLR,CLR,0.00,WeatherDisplay:10.37,2013-05-06 04:44:00,
2013-05-06 00:49:00,52.2,45.5,0.00,NE,48,0.0,0.0,78,0.00,CLR,CLR,0.00,WeatherDisplay:10.37,2013-05-06 04:49:00,
2013-05-06 00:55:00,52.1,45.4,0.00,NE,48,0.0,0.0,78,0.00,CLR,CLR,0.00,WeatherDisplay:10.37,2013-05-06 04:55:00,
2013-05-06 01:00:00,51.9,45.3,0.00,NE,48,0.0,0.0,78,0.00,CLR,CLR,0.00,WeatherDisplay:10.37,2013-05-06 05:00:00,
2013-05-06 01:05:00,51.8,45.2,0.00,NE,48,0.0,0.0,78,0.00,CLR,CLR,0.00,WeatherDisplay:10.37,2013-05-06 05:05:00,
2013-05-06 01:10:00,51.6,45.3,0.00,NE,48,0.0,0.0,79,0.00,CLR,CLR,0.00,WeatherDisplay:10.37,2013-05-06 05:10:00,
2013-05-06 01:15:00,51.6,45.3,0.00,NE,48,0.0,0.0,79,0.00,CLR,CLR,0.00,WeatherDisplay:10.37,2013-05-06 05:15:00,
2013-05-06 01:20:00,51.5,45.5,0.00,NE,48,0.0,0.0,80,0.00,CLR,CLR,0.00,WeatherDisplay:10.37,2013-05-06 05:20:00,
2013-05-06 01:25:00,51.4,45.4,0.00,NE,48,0.0,0.0,80,0.00,CLR,CLR,0.00,WeatherDisplay:10.37,2013-05-06 05:25:00,
2013-05-06 01:30:00,51.4,45.4,0.00,NE,48,0.0,0.0,80,0.00,CLR,CLR,0.00,WeatherDisplay:10.37,2013-05-06 05:30:00,
2013-05-06 01:36:00,51.7,46.1,0.00,NE,48,0.0,0.0,81,0.00,CLR,CLR,0.00,WeatherDisplay:10.37,2013-05-06 05:36:00,
2013-05-06 01:41:00,51.4,45.8,0.00,NE,48,0.0,0.0,81,0.00,CLR,CLR,0.00,WeatherDisplay:10.37,2013-05-06 05:41:00,
2013-05-06 01:46:00,51.4,45.8,0.00,NE,48,0.0,0.0,81,0.00,CLR,CLR,0.00,WeatherDisplay:10.37,2013-05-06 05:46:00,
2013-05-06 01:51:00,51.4,45.8,0.00,NE,48,0.0,0.0,81,0.00,CLR,CLR,0.00,WeatherDisplay:10.37,2013-05-06 05:51:00,
2013-05-06 01:56:00,51.4,45.8,0.00,NE,48,0.0,0.0,81,0.00,CLR,CLR,0.00,WeatherDisplay:10.37,2013-05-06 05:56:00,
2013-05-06 02:02:00,51.4,46.1,0.00,South,185,1.2,1.2,82,0.00,CLR,CLR,0.00,WeatherDisplay:10.37,2013-05-06 06:02:00,
2013-05-06 02:07:00,51.3,46.0,0.00,South,185,0.0,0.0,82,0.00,CLR,CLR,0.00,WeatherDisplay:10.37,2013-05-06 06:07:00,
2013-05-06 02:12:00,51.2,45.9,0.00,South,185,0.0,0.0,82,0.00,CLR,CLR,0.00,WeatherDisplay:10.37,2013-05-06 06:12:00,
2013-05-06 02:17:00,51.1,45.8,0.00,South,185,0.0,0.0,82,0.00,CLR,CLR,0.00,WeatherDisplay:10.37,2013-05-06 06:17:00,
2013-05-06 02:22:00,51.0,45.7,0.00,South,185,0.0,0.0,82,0.00,CLR,CLR,0.00,WeatherDisplay:10.37,2013-05-06 06:22:00,
2013-05-06 02:27:00,50.9,45.6,0.00,West,263,0.0,0.0,82,0.00,CLR,CLR,0.00,WeatherDisplay:10.37,2013-05-06 06:27:00,
2013-05-06 02:32:00,50.9,45.6,0.00,West,263,0.0,0.0,82,0.00,CLR,CLR,0.00,WeatherDisplay:10.37,2013-05-06 06:32:00,
2013-05-06 02:38:00,50.9,45.6,0.00,West,263,0.0,0.0,82,0.00,CLR,CLR,0.00,WeatherDisplay:10.37,2013-05-06 06:38:00,
2013-05-06 02:43:00,50.9,45.6,0.00,West,263,0.0,0.0,82,0.00,CLR,CLR,0.00,WeatherDisplay:10.37,2013-05-06 06:43:00,
2013-05-06 02:48:00,51.3,46.0,0.00,West,263,0.0,0.0,82,0.00,CLR,CLR,0.00,WeatherDisplay:10.37,2013-05-06 06:48:00,
2013-05-06 02:53:00,50.9,45.6,0.00,West,263,0.0,0.0,82,0.00,CLR,CLR,0.00,WeatherDisplay:10.37,2013-05-06 06:53:00,
2013-05-06 02:58:00,50.9,45.6,0.00,West,263,0.0,0.0,82,0.00,CLR,CLR,0.00,WeatherDisplay:10.37,2013-05-06 06:58:00,
2013-05-06 03:04:00,50.9,45.6,0.00,West,263,0.0,0.0,82,0.00,CLR,CLR,0.00,WeatherDisplay:10.37,2013-05-06 07:04:00,
2013-05-06 03:09:00,50.9,45.6,0.00,West,263,0.0,0.0,82,0.00,CLR,CLR,0.00,WeatherDisplay:10.37,2013-05-06 07:09:00,
2013-05-06 03:14:00,50.7,45.7,0.00,SSW,209,2.3,2.3,83,0.00,CLR,CLR,0.00,WeatherDisplay:10.37,2013-05-06 07:14:00,
2013-05-06 03:19:00,50.8,45.5,0.00,WSW,244,0.0,0.0,82,0.00,CLR,CLR,0.00,WeatherDisplay:10.37,2013-05-06 07:19:00,
2013-05-06 03:24:00,50.7,45.4,0.00,WSW,244,0.0,0.0,82,0.00,CLR,CLR,0.00,WeatherDisplay:10.37,2013-05-06 07:24:00,
2013-05-06 03:29:00,50.9,45.6,0.00,WSW,244,0.0,0.0,82,0.00,CLR,CLR,0.00,WeatherDisplay:10.37,2013-05-06 07:29:00,
2013-05-06 03:34:00,50.7,45.4,0.00,WSW,244,0.0,0.0,82,0.00,CLR,CLR,0.00,WeatherDisplay:10.37,2013-05-06 07:34:00,
2013-05-06 03:39:00,50.4,45.1,0.00,WSW,244,0.0,0.0,82,0.00,CLR,CLR,0.00,WeatherDisplay:10.37,2013-05-06 07:39:00,
2013-05-06 03:45:00,50.1,45.1,0.00,WSW,244,0.0,0.0,83,0.00,CLR,CLR,0.00,WeatherDisplay:10.37,2013-05-06 07:45:00,
2013-05-06 03:50:00,50.3,45.3,0.00,WSW,244,0.0,0.0,83,0.00,CLR,CLR,0.00,WeatherDisplay:10.37,2013-05-06 07:50:00,
2013-05-06 03:55:00,50.3,45.3,0.00,WSW,244,0.0,0.0,83,0.00,CLR,CLR,0.00,WeatherDisplay:10.37,2013-05-06 07:55:00,
2013-05-06 04:00:00,50.3,45.3,0.00,WSW,244,0.0,0.0,83,0.00,CLR,CLR,0.00,WeatherDisplay:10.37,2013-05-06 08:00:00,
2013-05-06 04:06:00,50.1,45.1,0.00,WSW,244,0.0,0.0,83,0.00,CLR,CLR,0.00,WeatherDisplay:10.37,2013-05-06 08:06:00,
2013-05-06 04:11:00,50.0,45.0,0.00,WSW,244,0.0,0.0,83,0.00,CLR,CLR,0.00,WeatherDisplay:10.37,2013-05-06 08:11:00,
2013-05-06 04:16:00,49.9,44.9,0.00,WSW,244,0.0,0.0,83,0.00,CLR,CLR,0.00,WeatherDisplay:10.37,2013-05-06 08:16:00,
2013-05-06 04:21:00,49.8,44.8,0.00,WSW,244,0.0,0.0,83,0.00,CLR,CLR,0.00,WeatherDisplay:10.37,2013-05-06 08:21:00,
2013-05-06 04:26:00,49.8,45.2,0.00,WSW,244,0.0,0.0,84,0.00,CLR,CLR,0.00,WeatherDisplay:10.37,2013-05-06 08:26:00,
2013-05-06 04:31:00,49.7,45.1,0.00,WSW,244,0.0,0.0,84,0.00,CLR,CLR,0.00,WeatherDisplay:10.37,2013-05-06 08:31:00,
2013-05-06 04:36:00,49.7,45.1,0.00,WSW,244,0.0,0.0,84,0.00,CLR,CLR,0.00,WeatherDisplay:10.37,2013-05-06 08:36:00,
2013-05-06 04:41:00,49.6,45.0,0.00,WSW,244,0.0,0.0,84,0.00,CLR,CLR,0.00,WeatherDisplay:10.37,2013-05-06 08:41:00,
2013-05-06 04:47:00,49.6,45.0,0.00,WSW,244,0.0,0.0,84,0.00,CLR,CLR,0.00,WeatherDisplay:10.37,2013-05-06 08:47:00,
2013-05-06 04:52:00,49.5,44.9,0.00,WSW,244,0.0,0.0,84,0.00,CLR,CLR,0.00,WeatherDisplay:10.37,2013-05-06 08:52:00,
2013-05-06 04:57:00,49.4,44.8,0.00,WSW,244,0.0,0.0,84,0.00,CLR,CLR,0.00,WeatherDisplay:10.37,2013-05-06 08:57:00,
2013-05-06 05:02:00,49.3,44.7,0.00,WSW,244,0.0,0.0,84,0.00,CLR,CLR,0.00,WeatherDisplay:10.37,2013-05-06 09:02:00,
2013-05-06 05:07:00,49.0,44.4,0.00,WSW,244,0.0,0.0,84,0.00,CLR,CLR,0.00,WeatherDisplay:10.37,2013-05-06 09:07:00,
2013-05-06 05:12:00,48.9,44.3,0.00,WSW,244,0.0,0.0,84,0.00,CLR,CLR,0.00,WeatherDisplay:10.37,2013-05-06 09:12:00,
2013-05-06 05:18:00,48.8,44.2,0.00,WSW,244,0.0,0.0,84,0.00,CLR,CLR,0.00,WeatherDisplay:10.37,2013-05-06 09:18:00,
2013-05-06 05:23:00,48.6,44.0,0.00,WSW,244,0.0,0.0,84,0.00,CLR,CLR,0.00,WeatherDisplay:10.37,2013-05-06 09:23:00,
2013-05-06 05:28:00,48.5,44.2,0.00,WSW,244,0.0,0.0,85,0.00,CLR,CLR,0.00,WeatherDisplay:10.37,2013-05-06 09:28:00,
2013-05-06 05:33:00,48.5,43.9,0.00,WSW,244,0.0,0.0,84,0.00,CLR,CLR,0.00,WeatherDisplay:10.37,2013-05-06 09:33:00,
2013-05-06 05:38:00,48.4,43.8,0.00,WSW,244,0.0,0.0,84,0.00,CLR,CLR,0.00,WeatherDisplay:10.37,2013-05-06 09:38:00,
2013-05-06 05:43:00,48.2,43.6,0.00,WSW,244,0.0,0.0,84,0.00,CLR,CLR,0.00,WeatherDisplay:10.37,2013-05-06 09:43:00,
2013-05-06 05:48:00,48.0,43.7,0.00,WSW,244,0.0,0.0,85,0.00,CLR,CLR,0.00,WeatherDisplay:10.37,2013-05-06 09:48:00,
2013-05-06 05:54:00,47.7,43.4,0.00,WSW,244,0.0,0.0,85,0.00,CLR,CLR,0.00,WeatherDisplay:10.37,2013-05-06 09:54:00,
2013-05-06 05:59:00,47.8,43.5,0.00,WSW,244,0.0,0.0,85,0.00,CLR,CLR,0.00,WeatherDisplay:10.37,2013-05-06 09:59:00,
2013-05-06 06:04:00,47.8,43.5,0.00,WSW,244,0.0,0.0,85,0.00,CLR,CLR,0.00,WeatherDisplay:10.37,2013-05-06 10:04:00,
2013-05-06 06:09:00,47.7,43.7,0.00,WSW,244,0.0,0.0,86,0.00,CLR,CLR,0.00,WeatherDisplay:10.37,2013-05-06 10:09:00,
2013-05-06 06:14:00,47.6,43.6,0.00,WSW,244,0.0,0.0,86,0.00,CLR,CLR,0.00,WeatherDisplay:10.37,2013-05-06 10:14:00,
2013-05-06 06:20:00,47.6,43.6,0.00,WSW,244,0.0,0.0,86,0.00,CLR,CLR,0.00,WeatherDisplay:10.37,2013-05-06 10:20:00,
2013-05-06 06:25:00,47.6,43.6,0.00,WSW,244,0.0,0.0,86,0.00,CLR,CLR,0.00,WeatherDisplay:10.37,2013-05-06 10:25:00,
2013-05-06 06:30:00,47.5,43.8,0.00,WSW,244,0.0,0.0,87,0.00,CLR,CLR,0.00,WeatherDisplay:10.37,2013-05-06 10:30:00,
2013-05-06 06:35:00,47.4,43.7,0.00,WSW,244,0.0,0.0,87,0.00,CLR,CLR,0.00,WeatherDisplay:10.37,2013-05-06 10:35:00,
2013-05-06 06:40:00,47.5,43.8,0.00,WSW,244,0.0,0.0,87,0.00,CLR,CLR,0.00,WeatherDisplay:10.37,2013-05-06 10:40:00,
2013-05-06 06:45:00,47.5,44.1,0.00,WSW,244,0.0,0.0,88,0.00,CLR,CLR,0.00,WeatherDisplay:10.37,2013-05-06 10:45:00,
2013-05-06 06:50:00,47.6,44.2,0.00,WSW,244,0.0,0.0,88,0.00,CLR,CLR,0.00,WeatherDisplay:10.37,2013-05-06 10:50:00,
2013-05-06 06:56:00,47.7,44.3,0.00,WSW,244,0.0,0.0,88,0.00,CLR,CLR,0.00,WeatherDisplay:10.37,2013-05-06 10:56:00,
2013-05-06 07:01:00,47.8,44.7,0.00,WSW,244,0.0,0.0,89,0.00,CLR,CLR,0.00,WeatherDisplay:10.37,2013-05-06 11:01:00,
2013-05-06 07:06:00,47.9,45.1,0.00,North,11,0.0,0.0,90,0.00,CLR,CLR,0.00,WeatherDisplay:10.37,2013-05-06 11:06:00,
2013-05-06 07:11:00,47.9,45.1,0.00,North,11,0.0,0.0,90,0.00,CLR,CLR,0.00,WeatherDisplay:10.37,2013-05-06 11:11:00,
2013-05-06 07:16:00,48.2,45.4,0.00,NNE,31,1.2,1.2,90,0.00,CLR,CLR,0.00,WeatherDisplay:10.37,2013-05-06 11:16:00,
2013-05-06 07:21:00,48.4,45.6,0.00,North,11,0.0,0.0,90,0.00,CLR,CLR,0.00,WeatherDisplay:10.37,2013-05-06 11:21:00,
2013-05-06 07:26:00,48.5,45.4,0.00,NNE,27,0.0,0.0,89,0.00,CLR,CLR,0.00,WeatherDisplay:10.37,2013-05-06 11:26:00,
2013-05-06 07:31:00,48.6,45.5,0.00,NNE,27,0.0,0.0,89,0.00,CLR,CLR,0.00,WeatherDisplay:10.37,2013-05-06 11:31:00,
2013-05-06 07:36:00,48.7,45.9,0.00,NW,312,0.0,0.0,90,0.00,CLR,CLR,0.00,WeatherDisplay:10.37,2013-05-06 11:36:00,
2013-05-06 07:42:00,49.0,45.9,0.00,SW,234,4.6,4.6,89,0.00,CLR,CLR,0.00,WeatherDisplay:10.37,2013-05-06 11:42:00,
2013-05-06 07:47:00,48.9,45.8,0.00,SSW,203,2.3,2.3,89,0.00,CLR,CLR,0.00,WeatherDisplay:10.37,2013-05-06 11:47:00,
2013-05-06 07:52:00,49.0,45.9,0.00,WSW,244,2.3,2.3,89,0.00,CLR,CLR,0.00,WeatherDisplay:10.37,2013-05-06 11:52:00,
2013-05-06 07:57:00,49.0,46.2,0.00,SW,224,2.3,2.3,90,0.00,CLR,CLR,0.00,WeatherDisplay:10.37,2013-05-06 11:57:00,
2013-05-06 08:02:00,49.2,46.1,0.00,WSW,246,3.5,3.5,89,0.00,CLR,CLR,0.00,WeatherDisplay:10.37,2013-05-06 12:02:00,
2013-05-06 08:07:00,49.5,46.1,0.00,WNW,282,2.3,2.3,88,0.00,CLR,CLR,0.00,WeatherDisplay:10.37,2013-05-06 12:07:00,
2013-05-06 08:13:00,49.6,46.5,0.00,SSW,200,0.0,0.0,89,0.00,CLR,CLR,0.00,WeatherDisplay:10.37,2013-05-06 12:13:00,
2013-05-06 08:18:00,49.7,46.3,0.00,East,83,0.0,0.1,88,0.00,CLR,CLR,0.00,WeatherDisplay:10.37,2013-05-06 12:18:00,
2013-05-06 08:23:00,49.8,46.4,0.00,ESE,113,0.0,0.0,88,0.00,CLR,CLR,0.00,WeatherDisplay:10.37,2013-05-06 12:23:00,
2013-05-06 08:28:00,49.8,46.7,0.00,ESE,113,0.0,0.0,89,0.00,CLR,CLR,0.00,WeatherDisplay:10.37,2013-05-06 12:28:00,
2013-05-06 08:33:00,49.9,46.8,0.00,NW,316,1.2,1.2,89,0.00,CLR,CLR,0.00,WeatherDisplay:10.37,2013-05-06 12:33:00,
2013-05-06 08:38:00,50.3,46.9,0.00,WNW,289,1.2,1.2,88,0.00,CLR,CLR,0.00,WeatherDisplay:10.37,2013-05-06 12:38:00,
2013-05-06 08:43:00,50.4,47.0,0.00,NNE,28,1.2,1.2,88,0.00,CLR,CLR,0.00,WeatherDisplay:10.37,2013-05-06 12:43:00,
2013-05-06 08:48:00,50.4,47.0,0.00,NE,49,2.3,2.3,88,0.00,CLR,CLR,0.00,WeatherDisplay:10.37,2013-05-06 12:48:00,
2013-05-06 08:53:00,50.4,47.0,0.00,ESE,104,1.4,1.4,88,0.00,CLR,CLR,0.00,WeatherDisplay:10.37,2013-05-06 12:53:00,
2013-05-06 08:59:00,50.4,47.0,0.00,NE,56,2.3,2.3,88,0.00,CLR,CLR,0.00,WeatherDisplay:10.37,2013-05-06 12:59:00,
2013-05-06 09:04:00,50.5,47.1,0.00,NE,42,2.3,2.3,88,0.00,CLR,CLR,0.00,WeatherDisplay:10.37,2013-05-06 13:04:00,
2013-05-06 09:09:00,50.6,47.5,0.00,NNW,346,2.2,2.2,89,0.00,CLR,CLR,0.00,WeatherDisplay:10.37,2013-05-06 13:09:00,
2013-05-06 09:14:00,50.9,47.5,0.00,NE,44,1.2,0.0,88,0.00,CLR,CLR,0.00,WeatherDisplay:10.37,2013-05-06 13:14:00,
2013-05-06 09:19:00,51.0,47.6,0.00,East,86,0.7,0.7,88,0.00,CLR,CLR,0.00,WeatherDisplay:10.37,2013-05-06 13:19:00,
2013-05-06 09:24:00,51.2,47.5,0.00,NE,47,2.3,2.3,87,0.00,CLR,CLR,0.00,WeatherDisplay:10.37,2013-05-06 13:24:00,
2013-05-06 09:30:00,51.2,47.8,0.00,NNE,13,3.5,3.5,88,0.00,CLR,CLR,0.00,WeatherDisplay:10.37,2013-05-06 13:30:00,
2013-05-06 09:35:00,51.3,47.6,0.00,WSW,248,0.0,0.0,87,0.00,CLR,CLR,0.00,WeatherDisplay:10.37,2013-05-06 13:35:00,
2013-05-06 09:40:00,51.6,47.9,0.00,East,80,3.5,3.5,87,0.00,CLR,CLR,0.00,WeatherDisplay:10.37,2013-05-06 13:40:00,
2013-05-06 09:45:00,51.8,48.1,0.00,East,92,1.2,0.0,87,0.00,CLR,CLR,0.00,WeatherDisplay:10.37,2013-05-06 13:45:00,
2013-05-06 09:50:00,52.0,47.9,0.00,East,92,0.0,0.0,86,0.00,CLR,CLR,0.00,WeatherDisplay:10.37,2013-05-06 13:50:00,
2013-05-06 09:55:00,52.0,47.9,0.00,West,278,2.3,2.3,86,0.00,CLR,CLR,0.00,WeatherDisplay:10.37,2013-05-06 13:55:00,
2013-05-06 10:00:00,52.2,48.1,0.00,WNW,292,3.4,3.4,86,0.00,CLR,CLR,0.00,WeatherDisplay:10.37,2013-05-06 14:00:00,
2013-05-06 10:05:00,52.2,48.1,0.00,WNW,287,3.5,3.5,86,0.00,CLR,CLR,0.00,WeatherDisplay:10.37,2013-05-06 14:05:00,
2013-05-06 10:10:00,52.4,48.3,0.00,NW,325,0.0,0.0,86,0.00,CLR,CLR,0.00,WeatherDisplay:10.37,2013-05-06 14:10:00,
2013-05-06 10:15:00,52.8,48.7,0.00,NNE,30,2.3,2.3,86,0.00,CLR,CLR,0.00,WeatherDisplay:10.37,2013-05-06 14:15:00,
2013-05-06 10:20:00,53.3,48.9,0.00,NNE,32,2.3,2.3,85,0.00,CLR,CLR,0.00,WeatherDisplay:10.37,2013-05-06 14:20:00,
2013-05-06 10:26:00,54.0,49.0,0.00,NE,41,0.0,0.0,83,0.00,CLR,CLR,0.00,WeatherDisplay:10.37,2013-05-06 14:26:00,
2013-05-06 10:31:00,54.5,49.1,0.00,NE,41,0.0,0.0,82,0.00,CLR,CLR,0.00,WeatherDisplay:10.37,2013-05-06 14:31:00,
2013-05-06 10:36:00,55.0,49.6,0.00,NW,319,3.6,3.6,82,0.00,CLR,CLR,0.00,WeatherDisplay:10.37,2013-05-06 14:36:00,
2013-05-06 10:41:00,55.5,49.4,0.00,North,11,3.5,3.5,80,0.00,CLR,CLR,0.00,WeatherDisplay:10.37,2013-05-06 14:41:00,
2013-05-06 10:46:00,55.9,49.5,0.00,NE,40,1.2,1.2,79,0.00,CLR,CLR,0.00,WeatherDisplay:10.37,2013-05-06 14:46:00,
2013-05-06 10:52:00,56.3,49.5,0.00,NE,35,0.0,0.0,78,0.00,CLR,CLR,0.00,WeatherDisplay:10.37,2013-05-06 14:52:00,
2013-05-06 10:57:00,56.7,49.9,0.00,North,3,1.1,1.1,78,0.00,CLR,CLR,0.00,WeatherDisplay:10.37,2013-05-06 14:57:00,
2013-05-06 11:02:00,57.3,50.1,0.00,NE,44,1.2,0.0,77,0.00,CLR,CLR,0.00,WeatherDisplay:10.37,2013-05-06 15:02:00,
2013-05-06 11:07:00,58.0,50.5,0.00,NNE,18,3.5,3.5,76,0.00,CLR,CLR,0.00,WeatherDisplay:10.37,2013-05-06 15:07:00,
2013-05-06 11:12:00,58.4,50.9,0.00,North,10,2.3,2.3,76,0.00,CLR,CLR,0.00,WeatherDisplay:10.37,2013-05-06 15:12:00,
2013-05-06 11:17:00,59.0,51.1,0.00,WNW,292,0.0,0.0,75,0.00,CLR,CLR,0.00,WeatherDisplay:10.37,2013-05-06 15:17:00,
2013-05-06 11:23:00,59.4,51.1,0.00,ENE,62,2.3,2.3,74,0.00,CLR,CLR,0.00,WeatherDisplay:10.37,2013-05-06 15:23:00,
2013-05-06 11:28:00,60.1,51.4,0.00,North,8,0.0,0.0,73,0.00,CLR,CLR,0.00,WeatherDisplay:10.37,2013-05-06 15:28:00,
2013-05-06 11:33:00,60.4,51.3,0.00,WNW,288,2.8,2.8,72,0.00,CLR,CLR,0.00,WeatherDisplay:10.37,2013-05-06 15:33:00,
2013-05-06 11:38:00,60.4,51.3,0.00,North,3,1.2,0.0,72,0.00,CLR,CLR,0.00,WeatherDisplay:10.37,2013-05-06 15:38:00,
2013-05-06 11:43:00,60.6,51.5,0.00,North,6,3.5,3.5,72,0.00,CLR,CLR,0.00,WeatherDisplay:10.37,2013-05-06 15:43:00,
2013-05-06 11:48:00,60.9,51.8,0.00,NNE,21,3.5,3.5,72,0.00,CLR,CLR,0.00,WeatherDisplay:10.37,2013-05-06 15:48:00,
2013-05-06 11:54:00,61.3,51.4,0.00,SSE,155,4.6,4.6,70,0.00,CLR,CLR,0.00,WeatherDisplay:10.37,2013-05-06 15:54:00,
2013-05-06 11:59:00,61.5,51.6,0.00,West,263,0.0,0.0,70,0.00,CLR,CLR,0.00,WeatherDisplay:10.37,2013-05-06 15:59:00,
2013-05-06 12:04:00,61.7,51.8,0.00,North,349,2.3,2.3,70,0.00,CLR,CLR,0.00,WeatherDisplay:10.37,2013-05-06 16:04:00,
2013-05-06 12:09:00,61.9,52.0,0.00,NNE,28,3.2,3.2,70,0.00,CLR,CLR,0.00,WeatherDisplay:10.37,2013-05-06 16:09:00,
2013-05-06 12:14:00,62.1,52.2,0.00,NE,38,2.3,2.3,70,0.00,CLR,CLR,0.00,WeatherDisplay:10.37,2013-05-06 16:14:00,
2013-05-06 12:19:00,62.2,52.3,0.00,NW,326,3.5,3.5,70,0.00,CLR,CLR,0.00,WeatherDisplay:10.37,2013-05-06 16:19:00,
2013-05-06 12:25:00,62.2,51.9,0.00,NNE,17,1.2,1.2,69,0.00,CLR,CLR,0.00,WeatherDisplay:10.37,2013-05-06 16:25:00,
2013-05-06 12:30:00,62.3,52.0,0.00,NNE,26,0.0,0.0,69,0.00,CLR,CLR,0.00,WeatherDisplay:10.37,2013-05-06 16:30:00,
2013-05-06 12:35:00,62.4,52.5,0.00,West,260,3.5,3.5,70,0.00,CLR,CLR,0.00,WeatherDisplay:10.37,2013-05-06 16:35:00,
2013-05-06 12:40:00,62.4,52.9,0.00,SSW,213,0.0,0.0,71,0.00,CLR,CLR,0.00,WeatherDisplay:10.37,2013-05-06 16:40:00,
2013-05-06 12:45:00,62.6,52.7,0.00,WSW,254,6.3,6.3,70,0.00,CLR,CLR,0.00,WeatherDisplay:10.37,2013-05-06 16:45:00,
2013-05-06 12:50:00,62.8,52.5,0.00,WSW,239,5.8,5.8,69,0.00,CLR,CLR,0.00,WeatherDisplay:10.37,2013-05-06 16:50:00,
2013-05-06 12:55:00,62.8,52.5,0.00,NW,323,2.3,2.3,69,0.00,CLR,CLR,0.00,WeatherDisplay:10.37,2013-05-06 16:55:00,
2013-05-06 13:00:00,62.9,52.6,0.00,WSW,239,1.2,1.2,69,0.00,CLR,CLR,0.00,WeatherDisplay:10.37,2013-05-06 17:00:00,
2013-05-06 13:06:00,63.1,52.4,0.00,SSW,206,6.9,6.9,68,0.00,CLR,CLR,0.00,WeatherDisplay:10.37,2013-05-06 17:06:00,
2013-05-06 13:11:00,63.5,52.7,0.00,NE,48,0.9,0.9,68,0.00,CLR,CLR,0.00,WeatherDisplay:10.37,2013-05-06 17:11:00,
2013-05-06 13:16:00,63.7,52.9,0.00,North,0,5.8,5.8,68,0.00,CLR,CLR,0.00,WeatherDisplay:10.37,2013-05-06 17:16:00,
2013-05-06 13:21:00,63.9,53.1,0.00,ESE,112,0.0,0.7,68,0.00,CLR,CLR,0.00,WeatherDisplay:10.37,2013-05-06 17:21:00,
2013-05-06 13:27:00,64.1,52.9,0.00,North,10,2.3,2.3,67,0.00,CLR,CLR,0.00,WeatherDisplay:10.37,2013-05-06 17:27:00,
2013-05-06 13:32:00,64.4,52.8,0.00,ENE,62,0.0,0.1,66,0.00,CLR,CLR,0.00,WeatherDisplay:10.37,2013-05-06 17:32:00,
2013-05-06 13:37:00,64.7,53.1,0.00,NE,35,1.2,0.0,66,0.00,CLR,CLR,0.00,WeatherDisplay:10.37,2013-05-06 17:37:00,
2013-05-06 13:42:00,64.9,53.3,0.00,WNW,295,0.0,0.5,66,0.00,CLR,CLR,0.00,WeatherDisplay:10.37,2013-05-06 17:42:00,
2013-05-06 13:48:00,65.0,52.9,0.00,West,272,6.3,6.3,65,0.00,CLR,CLR,0.00,WeatherDisplay:10.37,2013-05-06 17:48:00,
2013-05-06 13:53:00,65.0,52.5,0.00,WSW,258,8.1,8.1,64,0.00,CLR,CLR,0.00,WeatherDisplay:10.37,2013-05-06 17:53:00,
2013-05-06 13:58:00,65.0,52.5,0.00,NE,55,2.3,2.3,64,0.00,CLR,CLR,0.00,WeatherDisplay:10.37,2013-05-06 17:58:00,
2013-05-06 14:03:00,65.0,52.5,0.00,NW,320,2.3,2.3,64,0.00,CLR,CLR,0.00,WeatherDisplay:10.37,2013-05-06 18:03:00,
2013-05-06 14:08:00,65.2,52.7,0.00,NNW,339,2.3,2.3,64,0.00,CLR,CLR,0.00,WeatherDisplay:10.37,2013-05-06 18:08:00,
2013-05-06 14:13:00,65.6,53.1,0.00,West,268,2.1,2.1,64,0.00,CLR,CLR,0.00,WeatherDisplay:10.37,2013-05-06 18:13:00,
2013-05-06 14:18:00,66.2,53.2,0.00,West,261,1.2,1.2,63,0.00,CLR,CLR,0.00,WeatherDisplay:10.37,2013-05-06 18:18:00,
2013-05-06 14:24:00,66.4,53.4,0.00,North,3,1.7,1.7,63,0.00,CLR,CLR,0.00,WeatherDisplay:10.37,2013-05-06 18:24:00,
2013-05-06 14:29:00,66.7,53.7,0.00,WSW,254,3.9,3.9,63,0.00,CLR,CLR,0.00,WeatherDisplay:10.37,2013-05-06 18:29:00,
2013-05-06 14:34:00,66.9,53.0,0.00,NNW,330,8.1,8.1,61,0.00,CLR,CLR,0.00,WeatherDisplay:10.37,2013-05-06 18:34:00,
2013-05-06 14:39:00,67.0,53.1,0.00,WNW,296,1.2,1.2,61,0.00,CLR,CLR,0.00,WeatherDisplay:10.37,2013-05-06 18:39:00,
2013-05-06 14:44:00,67.2,53.3,0.00,WSW,246,2.4,2.4,61,0.00,CLR,CLR,0.00,WeatherDisplay:10.37,2013-05-06 18:44:00,
2013-05-06 14:49:00,67.3,52.9,0.00,SSE,158,6.9,7.0,60,0.00,CLR,CLR,0.00,WeatherDisplay:10.37,2013-05-06 18:49:00,
2013-05-06 14:55:00,67.6,54.1,0.00,North,0,2.3,2.3,62,0.00,CLR,CLR,0.00,WeatherDisplay:10.37,2013-05-06 18:55:00,
2013-05-06 15:00:00,67.9,54.0,0.00,SE,136,1.2,1.2,61,0.00,CLR,CLR,0.00,WeatherDisplay:10.37,2013-05-06 19:00:00,
2013-05-06 15:05:00,68.2,53.3,0.00,West,281,8.1,8.1,59,0.00,CLR,CLR,0.00,WeatherDisplay:10.37,2013-05-06 19:05:00,
2013-05-06 15:10:00,68.3,53.4,0.00,WSW,250,6.3,6.3,59,0.00,CLR,CLR,0.00,WeatherDisplay:10.37,2013-05-06 19:10:00,
2013-05-06 15:15:00,68.5,52.7,0.00,WSW,256,11.5,11.5,57,0.00,CLR,CLR,0.00,WeatherDisplay:10.37,2013-05-06 19:15:00,
2013-05-06 15:20:00,68.5,52.7,0.00,West,281,6.9,6.9,57,0.00,CLR,CLR,0.00,WeatherDisplay:10.37,2013-05-06 19:20:00,
2013-05-06 15:26:00,68.7,53.3,0.00,NNE,14,1.2,1.2,58,0.00,CLR,CLR,0.00,WeatherDisplay:10.37,2013-05-06 19:26:00,
2013-05-06 15:31:00,69.0,54.1,0.00,NNE,32,1.2,1.2,59,0.00,CLR,CLR,0.00,WeatherDisplay:10.37,2013-05-06 19:31:00,
2013-05-06 15:36:00,69.3,53.9,0.00,SE,145,2.3,2.3,58,0.00,CLR,CLR,0.00,WeatherDisplay:10.37,2013-05-06 19:36:00,
2013-05-06 15:41:00,69.5,54.5,0.00,North,357,1.2,1.2,59,0.00,CLR,CLR,0.00,WeatherDisplay:10.37,2013-05-06 19:41:00,
2013-05-06 15:46:00,69.7,54.3,0.00,ENE,71,2.3,2.3,58,0.00,CLR,CLR,0.00,WeatherDisplay:10.37,2013-05-06 19:46:00,
2013-05-06 15:51:00,70.0,55.0,0.00,NNE,24,2.3,2.3,59,0.00,CLR,CLR,0.00,WeatherDisplay:10.37,2013-05-06 19:51:00,
2013-05-06 15:56:00,70.1,55.1,0.00,NNE,13,2.3,2.3,59,0.00,CLR,CLR,0.00,WeatherDisplay:10.37,2013-05-06 19:56:00,
2013-05-06 16:01:00,70.4,54.4,0.00,NE,55,3.5,3.5,57,0.00,CLR,CLR,0.00,WeatherDisplay:10.37,2013-05-06 20:01:00,
2013-05-06 16:07:00,70.5,55.0,0.00,NNE,25,1.3,1.3,58,0.00,CLR,CLR,0.00,WeatherDisplay:10.37,2013-05-06 20:07:00,
2013-05-06 16:12:00,70.6,55.1,0.00,WNW,299,3.5,3.5,58,0.00,CLR,CLR,0.00,WeatherDisplay:10.37,2013-05-06 20:12:00,
2013-05-06 16:17:00,70.9,55.4,0.00,NW,316,8.1,8.1,58,0.00,CLR,CLR,0.00,WeatherDisplay:10.37,2013-05-06 20:17:00,
2013-05-06 16:22:00,71.2,55.7,0.00,WNW,299,2.3,2.3,58,0.00,CLR,CLR,0.00,WeatherDisplay:10.37,2013-05-06 20:22:00,
2013-05-06 16:27:00,71.5,55.5,0.00,NE,45,3.5,3.5,57,0.00,CLR,CLR,0.00,WeatherDisplay:10.37,2013-05-06 20:27:00,
2013-05-06 16:32:00,71.6,56.0,0.00,North,4,1.2,1.2,58,0.00,CLR,CLR,0.00,WeatherDisplay:10.37,2013-05-06 20:32:00,
2013-05-06 16:37:00,71.7,56.1,0.00,NW,304,2.3,2.3,58,0.00,CLR,CLR,0.00,WeatherDisplay:10.37,2013-05-06 20:37:00,
2013-05-06 16:43:00,71.9,55.8,0.00,NE,56,2.3,2.3,57,0.00,CLR,CLR,0.00,WeatherDisplay:10.37,2013-05-06 20:43:00,
2013-05-06 16:48:00,72.0,56.4,0.00,NE,51,0.0,0.0,58,0.00,CLR,CLR,0.00,WeatherDisplay:10.37,2013-05-06 20:48:00,
2013-05-06 16:53:00,72.1,56.0,0.00,NNE,31,0.0,0.0,57,0.00,CLR,CLR,0.00,WeatherDisplay:10.37,2013-05-06 20:53:00,
2013-05-06 16:58:00,72.2,56.1,0.00,NNE,16,0.0,0.0,57,0.00,CLR,CLR,0.00,WeatherDisplay:10.37,2013-05-06 20:58:00,
2013-05-06 17:03:00,72.3,55.7,0.00,WSW,243,2.2,2.2,56,0.00,CLR,CLR,0.00,WeatherDisplay:10.37,2013-05-06 21:03:00,
2013-05-06 17:08:00,72.5,56.4,0.00,North,7,2.3,0.0,57,0.00,CLR,CLR,0.00,WeatherDisplay:10.37,2013-05-06 21:08:00,
2013-05-06 17:14:00,72.8,56.7,0.00,NNE,32,1.2,1.2,57,0.00,CLR,CLR,0.00,WeatherDisplay:10.37,2013-05-06 21:14:00,
2013-05-06 17:19:00,72.8,56.2,0.00,NE,42,4.6,4.6,56,0.00,CLR,CLR,0.00,WeatherDisplay:10.37,2013-05-06 21:19:00,
2013-05-06 17:24:00,72.8,56.7,0.00,WNW,298,5.8,5.8,57,0.00,CLR,CLR,0.00,WeatherDisplay:10.37,2013-05-06 21:24:00,
2013-05-06 17:29:00,72.8,56.7,0.00,NNE,13,5.8,5.8,57,0.00,CLR,CLR,0.00,WeatherDisplay:10.37,2013-05-06 21:29:00,
2013-05-06 17:34:00,72.8,56.7,0.00,North,11,3.5,3.5,57,0.00,CLR,CLR,0.00,WeatherDisplay:10.37,2013-05-06 21:34:00,
2013-05-06 17:39:00,73.0,57.3,0.00,NNW,343,2.3,2.3,58,0.00,CLR,CLR,0.00,WeatherDisplay:10.37,2013-05-06 21:39:00,
2013-05-06 17:45:00,73.0,57.3,0.00,NW,313,2.3,2.3,58,0.00,CLR,CLR,0.00,WeatherDisplay:10.37,2013-05-06 21:45:00,
2013-05-06 17:50:00,73.1,57.4,0.00,NW,308,3.5,3.5,58,0.00,CLR,CLR,0.00,WeatherDisplay:10.37,2013-05-06 21:50:00,
2013-05-06 17:55:00,73.1,57.0,0.00,ENE,66,1.2,1.2,57,0.00,CLR,CLR,0.00,WeatherDisplay:10.37,2013-05-06 21:55:00,
2013-05-06 18:00:00,73.2,57.5,0.00,NE,52,3.5,3.5,58,0.00,CLR,CLR,0.00,WeatherDisplay:10.37,2013-05-06 22:00:00,
2013-05-06 18:05:00,73.1,57.4,0.00,WNW,302,0.0,0.3,58,0.00,CLR,CLR,0.00,WeatherDisplay:10.37,2013-05-06 22:05:00,
2013-05-06 18:10:00,73.3,57.6,0.00,NNE,32,3.5,3.5,58,0.00,CLR,CLR,0.00,WeatherDisplay:10.37,2013-05-06 22:10:00,
2013-05-06 18:16:00,73.4,57.7,0.00,WNW,290,0.0,0.0,58,0.00,CLR,CLR,0.00,WeatherDisplay:10.37,2013-05-06 22:16:00,
2013-05-06 18:21:00,73.5,57.8,0.00,ENE,58,0.0,0.0,58,0.00,CLR,CLR,0.00,WeatherDisplay:10.37,2013-05-06 22:21:00,
2013-05-06 18:26:00,73.5,57.8,0.00,ENE,64,1.2,1.2,58,0.00,CLR,CLR,0.00,WeatherDisplay:10.37,2013-05-06 22:26:00,
2013-05-06 18:31:00,73.5,57.8,0.00,NE,47,1.2,1.2,58,0.00,CLR,CLR,0.00,WeatherDisplay:10.37,2013-05-06 22:31:00,
2013-05-06 18:36:00,73.4,57.7,0.00,ENE,59,3.5,3.5,58,0.00,CLR,CLR,0.00,WeatherDisplay:10.37,2013-05-06 22:36:00,
2013-05-06 18:41:00,73.2,57.5,0.00,East,83,1.2,1.3,58,0.00,CLR,CLR,0.00,WeatherDisplay:10.37,2013-05-06 22:41:00,
2013-05-06 18:46:00,73.1,57.4,0.00,WSW,246,3.5,3.5,58,0.00,CLR,CLR,0.00,WeatherDisplay:10.37,2013-05-06 22:46:00,
2013-05-06 18:52:00,73.1,57.9,0.00,NE,51,2.3,2.3,59,0.00,CLR,CLR,0.00,WeatherDisplay:10.37,2013-05-06 22:52:00,
2013-05-06 18:57:00,73.0,57.8,0.00,NNE,16,0.0,0.0,59,0.00,CLR,CLR,0.00,WeatherDisplay:10.37,2013-05-06 22:57:00,
2013-05-06 19:02:00,72.9,57.7,0.00,NNE,31,1.2,1.2,59,0.00,CLR,CLR,0.00,WeatherDisplay:10.37,2013-05-06 23:02:00,
2013-05-06 19:07:00,72.8,57.6,0.00,North,350,1.2,1.2,59,0.00,CLR,CLR,0.00,WeatherDisplay:10.37,2013-05-06 23:07:00,
2013-05-06 19:13:00,72.6,57.9,0.00,NNE,18,0.0,0.0,60,0.00,CLR,CLR,0.00,WeatherDisplay:10.37,2013-05-06 23:13:00,
2013-05-06 19:18:00,72.4,57.7,0.00,NNE,18,0.0,0.0,60,0.00,CLR,CLR,0.00,WeatherDisplay:10.37,2013-05-06 23:18:00,
2013-05-06 19:23:00,72.1,57.9,0.00,North,3,0.0,0.0,61,0.00,CLR,CLR,0.00,WeatherDisplay:10.37,2013-05-06 23:23:00,
2013-05-06 19:28:00,71.7,57.5,0.00,NNE,27,0.0,0.0,61,0.00,CLR,CLR,0.00,WeatherDisplay:10.37,2013-05-06 23:28:00,
2013-05-06 19:33:00,71.3,57.2,0.00,NNE,18,0.0,0.0,61,0.00,CLR,CLR,0.00,WeatherDisplay:10.37,2013-05-06 23:33:00,
2013-05-06 19:38:00,71.0,57.3,0.00,NE,42,0.0,0.0,62,0.00,CLR,CLR,0.00,WeatherDisplay:10.37,2013-05-06 23:38:00,
2013-05-06 19:43:00,70.5,56.9,0.00,ENE,59,3.5,0.0,62,0.00,CLR,CLR,0.00,WeatherDisplay:10.37,2013-05-06 23:43:00,
2013-05-06 19:49:00,70.1,56.9,0.00,NNE,32,0.4,0.4,63,0.00,CLR,CLR,0.00,WeatherDisplay:10.37,2013-05-06 23:49:00,
2013-05-06 19:54:00,69.8,56.6,0.00,NE,55,0.0,0.0,63,0.00,CLR,CLR,0.00,WeatherDisplay:10.37,2013-05-06 23:54:00,
2013-05-06 19:59:00,69.6,56.9,0.00,NE,55,0.0,0.0,64,0.00,CLR,CLR,0.00,WeatherDisplay:10.37,2013-05-06 23:59:00,
2013-05-06 20:04:00,69.5,56.8,0.00,NE,51,0.0,0.0,64,0.00,CLR,CLR,0.00,WeatherDisplay:10.37,2013-05-07 00:04:00,
2013-05-06 20:10:00,69.0,56.3,0.00,NE,51,0.0,0.0,64,0.00,CLR,CLR,0.00,WeatherDisplay:10.37,2013-05-07 00:10:00,
2013-05-06 20:15:00,68.7,56.0,0.00,NE,56,2.3,2.3,64,0.00,CLR,CLR,0.00,WeatherDisplay:10.37,2013-05-07 00:15:00,
2013-05-06 20:20:00,68.4,56.2,0.00,ENE,58,0.0,0.0,65,0.00,CLR,CLR,0.00,WeatherDisplay:10.37,2013-05-07 00:20:00,
2013-05-06 20:25:00,68.1,55.9,0.00,NNE,28,0.0,0.0,65,0.00,CLR,CLR,0.00,WeatherDisplay:10.37,2013-05-07 00:25:00,
2013-05-06 20:30:00,67.8,56.0,0.00,NNE,32,0.0,0.0,66,0.00,CLR,CLR,0.00,WeatherDisplay:10.37,2013-05-07 00:30:00,
2013-05-06 20:36:00,67.5,55.7,0.00,NNE,32,0.0,0.0,66,0.00,CLR,CLR,0.00,WeatherDisplay:10.37,2013-05-07 00:36:00,
2013-05-06 20:41:00,67.2,55.5,0.00,NE,35,2.3,2.3,66,0.00,CLR,CLR,0.00,WeatherDisplay:10.37,2013-05-07 00:41:00,
2013-05-06 20:46:00,66.9,55.2,0.00,NW,308,0.0,0.2,66,0.00,CLR,CLR,0.00,WeatherDisplay:10.37,2013-05-07 00:46:00,
2013-05-06 20:51:00,66.8,55.1,0.00,NNE,31,0.0,0.0,66,0.00,CLR,CLR,0.00,WeatherDisplay:10.37,2013-05-07 00:51:00,
2013-05-06 20:56:00,66.6,55.3,0.00,North,11,0.0,0.0,67,0.00,CLR,CLR,0.00,WeatherDisplay:10.37,2013-05-07 00:56:00,
2013-05-06 21:01:00,66.3,55.0,0.00,North,11,0.0,0.0,67,0.00,CLR,CLR,0.00,WeatherDisplay:10.37,2013-05-07 01:01:00,
2013-05-06 21:06:00,66.2,54.9,0.00,North,11,0.0,0.0,67,0.00,CLR,CLR,0.00,WeatherDisplay:10.37,2013-05-07 01:06:00,
2013-05-06 21:11:00,65.9,54.6,0.00,North,11,0.0,0.0,67,0.00,CLR,CLR,0.00,WeatherDisplay:10.37,2013-05-07 01:11:00,
2013-05-06 21:16:00,65.7,54.8,0.00,North,11,0.0,0.0,68,0.00,CLR,CLR,0.00,WeatherDisplay:10.37,2013-05-07 01:16:00,
2013-05-06 21:22:00,65.6,54.8,0.00,North,11,0.0,0.0,68,0.00,CLR,CLR,0.00,WeatherDisplay:10.37,2013-05-07 01:22:00,
2013-05-06 21:27:00,65.4,54.6,0.00,North,11,0.0,0.0,68,0.00,CLR,CLR,0.00,WeatherDisplay:10.37,2013-05-07 01:27:00,
2013-05-06 21:32:00,65.3,54.5,0.00,North,11,0.0,0.0,68,0.00,CLR,CLR,0.00,WeatherDisplay:10.37,2013-05-07 01:32:00,
2013-05-06 21:37:00,65.1,54.3,0.00,North,11,0.0,0.0,68,0.00,CLR,CLR,0.00,WeatherDisplay:10.37,2013-05-07 01:37:00,
2013-05-06 21:42:00,64.9,54.1,0.00,North,11,0.0,0.0,68,0.00,CLR,CLR,0.00,WeatherDisplay:10.37,2013-05-07 01:42:00,
2013-05-06 21:47:00,64.8,54.0,0.00,North,11,0.0,0.0,68,0.00,CLR,CLR,0.00,WeatherDisplay:10.37,2013-05-07 01:47:00,
2013-05-06 21:53:00,64.6,53.8,0.00,North,11,0.0,0.0,68,0.00,CLR,CLR,0.00,WeatherDisplay:10.37,2013-05-07 01:53:00,
2013-05-06 21:58:00,64.4,54.0,0.00,North,11,0.0,0.0,69,0.00,CLR,CLR,0.00,WeatherDisplay:10.37,2013-05-07 01:58:00,
2013-05-06 22:03:00,64.2,53.8,0.00,North,11,0.0,0.0,69,0.00,CLR,CLR,0.00,WeatherDisplay:10.37,2013-05-07 02:03:00,
2013-05-06 22:08:00,64.0,53.6,0.00,North,11,0.0,0.0,69,0.00,CLR,CLR,0.00,WeatherDisplay:10.37,2013-05-07 02:08:00,
2013-05-06 22:14:00,63.8,53.8,0.00,North,11,0.0,0.0,70,0.00,CLR,CLR,0.00,WeatherDisplay:10.37,2013-05-07 02:14:00,
2013-05-06 22:19:00,63.5,53.5,0.00,North,11,0.0,0.0,70,0.00,CLR,CLR,0.00,WeatherDisplay:10.37,2013-05-07 02:19:00,
2013-05-06 22:24:00,63.3,53.3,0.00,North,11,0.0,0.0,70,0.00,CLR,CLR,0.00,WeatherDisplay:10.37,2013-05-07 02:24:00,
2013-05-06 22:29:00,63.2,53.3,0.00,North,11,0.0,0.0,70,0.00,CLR,CLR,0.00,WeatherDisplay:10.37,2013-05-07 02:29:00,
2013-05-06 22:34:00,63.0,53.1,0.00,North,11,0.0,0.0,70,0.00,CLR,CLR,0.00,WeatherDisplay:10.37,2013-05-07 02:34:00,
2013-05-06 22:39:00,62.8,53.3,0.00,North,11,0.0,0.0,71,0.00,CLR,CLR,0.00,WeatherDisplay:10.37,2013-05-07 02:39:00,
2013-05-06 22:45:00,62.5,53.0,0.00,North,11,0.0,0.0,71,0.00,CLR,CLR,0.00,WeatherDisplay:10.37,2013-05-07 02:45:00,
2013-05-06 22:50:00,62.3,52.8,0.00,North,11,0.0,0.0,71,0.00,CLR,CLR,0.00,WeatherDisplay:10.37,2013-05-07 02:50:00,
2013-05-06 22:55:00,62.2,53.1,0.00,North,11,0.0,0.0,72,0.00,CLR,CLR,0.00,WeatherDisplay:10.37,2013-05-07 02:55:00,
2013-05-06 23:00:00,62.0,52.9,0.00,North,11,0.0,0.0,72,0.00,CLR,CLR,0.00,WeatherDisplay:10.37,2013-05-07 03:00:00,
2013-05-06 23:05:00,61.7,52.6,0.00,North,11,0.0,0.0,72,0.00,CLR,CLR,0.00,WeatherDisplay:10.37,2013-05-07 03:05:00,
2013-05-06 23:11:00,61.6,52.5,0.00,North,11,0.0,0.0,72,0.00,CLR,CLR,0.00,WeatherDisplay:10.37,2013-05-07 03:11:00,
2013-05-06 23:16:00,61.3,52.6,0.00,North,11,0.0,0.0,73,0.00,CLR,CLR,0.00,WeatherDisplay:10.37,2013-05-07 03:16:00,
2013-05-06 23:21:00,61.1,52.4,0.00,North,11,0.0,0.0,73,0.00,CLR,CLR,0.00,WeatherDisplay:10.37,2013-05-07 03:21:00,
2013-05-06 23:26:00,61.0,52.3,0.00,North,11,0.0,0.0,73,0.00,CLR,CLR,0.00,WeatherDisplay:10.37,2013-05-07 03:26:00,
2013-05-06 23:32:00,60.7,52.4,0.00,North,11,0.0,0.0,74,0.00,CLR,CLR,0.00,WeatherDisplay:10.37,2013-05-07 03:32:00,
2013-05-06 23:37:00,60.6,52.3,0.00,North,11,0.0,0.0,74,0.00,CLR,CLR,0.00,WeatherDisplay:10.37,2013-05-07 03:37:00,
2013-05-06 23:42:00,60.4,52.1,0.00,North,11,0.0,0.0,74,0.00,CLR,CLR,0.00,WeatherDisplay:10.37,2013-05-07 03:42:00,
2013-05-06 23:47:00,60.3,52.0,0.00,North,11,0.0,0.0,74,0.00,CLR,CLR,0.00,WeatherDisplay:10.37,2013-05-07 03:47:00,
2013-05-06 23:52:00,60.0,52.1,0.00,North,11,0.0,0.0,75,0.00,CLR,CLR,0.00,WeatherDisplay:10.37,2013-05-07 03:52:00,
2013-05-06 23:57:00,59.9,52.0,0.00,North,11,0.0,0.0,75,0.00,CLR,CLR,0.00,WeatherDisplay:10.37,2013-05-07 03:57:00,